Location: Kalberh�ni
(46.4610°N, 7.2453°E)
Time: 08:19:32
(UTC+00:00)

Cosmos 1455 - Pass Details

Date: 25 October 2021
Orbit: 496 x 520 km, 82.5° (Epoch: 27 November)

Event Time Altitude Azimuth Distance (km) Brightness Sun altitude
Rises 19:03:39 0° 206° (SSW) 2,621 6.0 -27.5°
Reaches altitude 10° 19:05:53 10° 215° (SW) 1,735 5.1 -27.9°
Enters shadow 19:06:47 16° 221° (SW) 1,403 4.7 -28.1°
